Time,TemperatureF,DewpointF,PressureIn,WindDirection,WindDirectionDegrees,WindSpeedMPH,WindSpeedGustMPH,Humidity,HourlyPrecipIn,Conditions,Clouds,dailyrainin,SoftwareType,DateUTC
2013-11-29 00:12:00,27.0,-99.9,30.42,North,360,15.0,18.0,-999,-99.99,,,-99.99,,2013-11-29 06:12:00,
2013-11-29 00:22:00,27.0,-99.9,30.42,North,360,15.0,18.0,-999,-99.99,,,-99.99,,2013-11-29 06:22:00,
2013-11-29 00:40:00,28.0,-99.9,30.43,North,360,15.0,17.0,-999,-99.99,,,-99.99,,2013-11-29 06:40:00,
2013-11-29 00:42:00,28.0,-99.9,30.43,North,360,14.0,18.0,-999,-99.99,,,-99.99,,2013-11-29 06:42:00,
2013-11-29 00:52:00,28.0,-99.9,30.43,North,360,14.0,18.0,-999,-99.99,,,-99.99,,2013-11-29 06:52:00,
2013-11-29 01:12:00,28.0,-99.9,30.43,North,360,15.0,17.0,-999,-99.99,,,-99.99,,2013-11-29 07:12:00,
2013-11-29 01:22:00,28.0,-99.9,30.43,North,360,15.0,17.0,-999,-99.99,,,-99.99,,2013-11-29 07:22:00,
2013-11-29 01:32:00,28.0,-99.9,30.43,North,360,15.0,17.0,-999,-99.99,,,-99.99,,2013-11-29 07:32:00,
2013-11-29 01:52:00,28.0,-99.9,30.44,North,360,14.0,17.0,-999,-99.99,,,-99.99,,2013-11-29 07:52:00,
2013-11-29 02:11:00,28.0,-99.9,30.45,North,360,15.0,17.0,-999,-99.99,,,-99.99,,2013-11-29 08:11:00,
2013-11-29 02:22:00,28.0,-99.9,30.45,North,360,15.0,17.0,-999,-99.99,,,-99.99,,2013-11-29 08:22:00,
2013-11-29 02:40:00,27.0,-99.9,30.47,North,360,15.0,16.0,-999,-99.99,,,-99.99,,2013-11-29 08:40:00,
2013-11-29 02:42:00,28.0,-99.9,30.46,North,360,14.0,20.0,-999,-99.99,,,-99.99,,2013-11-29 08:42:00,
2013-11-29 02:53:00,28.0,-99.9,30.46,North,360,14.0,20.0,-999,-99.99,,,-99.99,,2013-11-29 08:53:00,
2013-11-29 03:12:00,27.0,-99.9,30.47,North,360,15.0,16.0,-999,-99.99,,,-99.99,,2013-11-29 09:12:00,
2013-11-29 03:22:00,27.0,-99.9,30.47,North,360,15.0,16.0,-999,-99.99,,,-99.99,,2013-11-29 09:22:00,
2013-11-29 03:33:00,27.0,-99.9,30.47,North,360,15.0,16.0,-999,-99.99,,,-99.99,,2013-11-29 09:33:00,
2013-11-29 03:53:00,27.0,-99.9,30.47,NNW,340,14.0,18.0,-999,-99.99,,,-99.99,,2013-11-29 09:53:00,
2013-11-29 04:13:00,28.0,-99.9,30.48,North,350,13.0,15.0,-999,-99.99,,,-99.99,,2013-11-29 10:13:00,
2013-11-29 04:23:00,28.0,-99.9,30.48,North,350,13.0,15.0,-999,-99.99,,,-99.99,,2013-11-29 10:23:00,
2013-11-29 04:33:00,28.0,-99.9,30.48,North,350,13.0,15.0,-999,-99.99,,,-99.99,,2013-11-29 10:33:00,
2013-11-29 04:52:00,28.0,-99.9,30.49,North,350,13.0,18.0,-999,-99.99,,,-99.99,,2013-11-29 10:52:00,
2013-11-29 05:12:00,28.0,-99.9,30.49,North,10,13.0,15.0,-999,-99.99,,,-99.99,,2013-11-29 11:12:00,
2013-11-29 05:22:00,28.0,-99.9,30.49,North,10,13.0,15.0,-999,-99.99,,,-99.99,,2013-11-29 11:22:00,
2013-11-29 05:33:00,28.0,-99.9,30.49,North,10,13.0,15.0,-999,-99.99,,,-99.99,,2013-11-29 11:33:00,
2013-11-29 05:52:00,28.0,-99.9,30.50,North,10,10.0,16.0,-999,-99.99,,,-99.99,,2013-11-29 11:52:00,
2013-11-29 06:12:00,28.0,-99.9,30.50,North,360,10.0,13.0,-999,-99.99,,,-99.99,,2013-11-29 12:12:00,
2013-11-29 06:22:00,28.0,-99.9,30.50,North,360,10.0,13.0,-999,-99.99,,,-99.99,,2013-11-29 12:22:00,
2013-11-29 06:32:00,28.0,-99.9,30.50,North,360,10.0,13.0,-999,-99.99,,,-99.99,,2013-11-29 12:32:00,
2013-11-29 06:52:00,28.0,-99.9,30.51,NNW,340,9.0,13.0,-999,-99.99,,,-99.99,,2013-11-29 12:52:00,
2013-11-29 07:11:00,28.0,-99.9,30.52,NNW,340,9.0,13.0,-999,-99.99,,,-99.99,,2013-11-29 13:11:00,
2013-11-29 07:22:00,28.0,-99.9,30.52,NNW,340,9.0,13.0,-999,-99.99,,,-99.99,,2013-11-29 13:22:00,
2013-11-29 07:40:00,27.0,-99.9,30.54,NW,320,5.0,8.0,-999,-99.99,,,-99.99,,2013-11-29 13:40:00,
2013-11-29 07:42:00,28.0,-99.9,30.53,NW,320,8.0,13.0,-999,-99.99,,,-99.99,,2013-11-29 13:42:00,
2013-11-29 07:52:00,28.0,-99.9,30.53,NW,320,8.0,13.0,-999,-99.99,,,-99.99,,2013-11-29 13:52:00,
2013-11-29 08:11:00,27.0,-99.9,30.54,NW,320,5.0,8.0,-999,-99.99,,,-99.99,,2013-11-29 14:11:00,
2013-11-29 08:22:00,27.0,-99.9,30.54,NW,320,5.0,8.0,-999,-99.99,,,-99.99,,2013-11-29 14:22:00,
2013-11-29 08:32:00,27.0,-99.9,30.54,NW,320,5.0,8.0,-999,-99.99,,,-99.99,,2013-11-29 14:32:00,
2013-11-29 08:40:00,28.0,-99.9,30.56,West,280,5.0,8.0,-999,-99.99,,,-99.99,,2013-11-29 14:40:00,
2013-11-29 09:11:00,28.0,-99.9,30.56,West,280,5.0,8.0,-999,-99.99,,,-99.99,,2013-11-29 15:11:00,
2013-11-29 09:22:00,28.0,-99.9,30.56,West,280,5.0,8.0,-999,-99.99,,,-99.99,,2013-11-29 15:22:00,
2013-11-29 09:33:00,28.0,-99.9,30.56,West,280,5.0,8.0,-999,-99.99,,,-99.99,,2013-11-29 15:33:00,
2013-11-29 09:40:00,30.0,-99.9,30.57,NW,310,5.0,8.0,-999,-99.99,,,-99.99,,2013-11-29 15:40:00,
2013-11-29 10:13:00,30.0,-99.9,30.57,NW,310,5.0,8.0,-999,-99.99,,,-99.99,,2013-11-29 16:13:00,
2013-11-29 10:23:00,30.0,-99.9,30.57,NW,310,5.0,8.0,-999,-99.99,,,-99.99,,2013-11-29 16:23:00,
2013-11-29 10:34:00,30.0,-99.9,30.57,NW,310,5.0,8.0,-999,-99.99,,,-99.99,,2013-11-29 16:34:00,
2013-11-29 10:40:00,29.0,-99.9,30.57,WNW,300,6.0,8.0,-999,-99.99,,,-99.99,,2013-11-29 16:40:00,
2013-11-29 11:12:00,29.0,-99.9,30.57,WNW,300,6.0,8.0,-999,-99.99,,,-99.99,,2013-11-29 17:12:00,
2013-11-29 11:22:00,29.0,-99.9,30.57,WNW,300,6.0,8.0,-999,-99.99,,,-99.99,,2013-11-29 17:22:00,
2013-11-29 11:33:00,29.0,-99.9,30.57,WNW,300,6.0,8.0,-999,-99.99,,,-99.99,,2013-11-29 17:33:00,
2013-11-29 11:40:00,29.0,-99.9,30.55,NW,320,6.0,8.0,-999,-99.99,,,-99.99,,2013-11-29 17:40:00,
2013-11-29 12:12:00,29.0,-99.9,30.55,NW,320,6.0,8.0,-999,-99.99,,,-99.99,,2013-11-29 18:12:00,
2013-11-29 12:22:00,29.0,-99.9,30.55,NW,320,6.0,8.0,-999,-99.99,,,-99.99,,2013-11-29 18:22:00,
2013-11-29 12:33:00,29.0,-99.9,30.55,NW,320,6.0,8.0,-999,-99.99,,,-99.99,,2013-11-29 18:33:00,
2013-11-29 12:40:00,31.0,-99.9,30.53,WSW,240,5.0,8.0,-999,-99.99,,,-99.99,,2013-11-29 18:40:00,
2013-11-29 13:11:00,31.0,-99.9,30.53,WSW,240,5.0,8.0,-999,-99.99,,,-99.99,,2013-11-29 19:11:00,
2013-11-29 13:22:00,31.0,-99.9,30.53,WSW,240,5.0,8.0,-999,-99.99,,,-99.99,,2013-11-29 19:22:00,
2013-11-29 13:32:00,31.0,-99.9,30.53,WSW,240,5.0,8.0,-999,-99.99,,,-99.99,,2013-11-29 19:32:00,
2013-11-29 13:40:00,29.0,-99.9,30.52,SW,220,5.0,6.0,-999,-99.99,,,-99.99,,2013-11-29 19:40:00,
2013-11-29 14:12:00,29.0,-99.9,30.52,SW,220,5.0,6.0,-999,-99.99,,,-99.99,,2013-11-29 20:12:00,
2013-11-29 14:22:00,29.0,-99.9,30.52,SW,220,5.0,6.0,-999,-99.99,,,-99.99,,2013-11-29 20:22:00,
2013-11-29 14:32:00,29.0,-99.9,30.52,SW,220,5.0,6.0,-999,-99.99,,,-99.99,,2013-11-29 20:32:00,
2013-11-29 14:40:00,29.0,-99.9,30.51,SSW,210,1.0,3.0,-999,-99.99,,,-99.99,,2013-11-29 20:40:00,
2013-11-29 15:12:00,29.0,-99.9,30.51,SSW,210,1.0,3.0,-999,-99.99,,,-99.99,,2013-11-29 21:12:00,
2013-11-29 15:22:00,29.0,-99.9,30.51,SSW,210,1.0,3.0,-999,-99.99,,,-99.99,,2013-11-29 21:22:00,
2013-11-29 15:33:00,29.0,-99.9,30.51,SSW,210,1.0,3.0,-999,-99.99,,,-99.99,,2013-11-29 21:33:00,
2013-11-29 15:40:00,28.0,-99.9,30.50,North,0,0.0,6.0,-999,-99.99,,,-99.99,,2013-11-29 21:40:00,
2013-11-29 16:13:00,28.0,-99.9,30.50,North,0,0.0,6.0,-999,-99.99,,,-99.99,,2013-11-29 22:13:00,
2013-11-29 16:23:00,28.0,-99.9,30.50,North,0,0.0,6.0,-999,-99.99,,,-99.99,,2013-11-29 22:23:00,
2013-11-29 16:33:00,28.0,-99.9,30.50,North,0,0.0,6.0,-999,-99.99,,,-99.99,,2013-11-29 22:33:00,
2013-11-29 16:40:00,28.0,-99.9,30.49,North,0,0.0,2.0,-999,-99.99,,,-99.99,,2013-11-29 22:40:00,
2013-11-29 17:12:00,28.0,-99.9,30.49,North,0,0.0,2.0,-999,-99.99,,,-99.99,,2013-11-29 23:12:00,
2013-11-29 17:22:00,28.0,-99.9,30.49,North,0,0.0,2.0,-999,-99.99,,,-99.99,,2013-11-29 23:22:00,
2013-11-29 17:33:00,28.0,-99.9,30.49,North,0,0.0,2.0,-999,-99.99,,,-99.99,,2013-11-29 23:33:00,
2013-11-29 17:40:00,28.0,-99.9,30.47,South,180,3.0,7.0,-999,-99.99,,,-99.99,,2013-11-29 23:40:00,
2013-11-29 18:11:00,28.0,-99.9,30.47,South,180,3.0,7.0,-999,-99.99,,,-99.99,,2013-11-30 00:11:00,
2013-11-29 18:22:00,28.0,-99.9,30.47,South,180,3.0,7.0,-999,-99.99,,,-99.99,,2013-11-30 00:22:00,
2013-11-29 18:32:00,28.0,-99.9,30.47,South,180,3.0,7.0,-999,-99.99,,,-99.99,,2013-11-30 00:32:00,
2013-11-29 18:40:00,30.0,-99.9,30.45,South,180,3.0,10.0,-999,-99.99,,,-99.99,,2013-11-30 00:40:00,
2013-11-29 19:11:00,30.0,-99.9,30.45,South,180,3.0,10.0,-999,-99.99,,,-99.99,,2013-11-30 01:11:00,
2013-11-29 19:22:00,30.0,-99.9,30.45,South,180,3.0,10.0,-999,-99.99,,,-99.99,,2013-11-30 01:22:00,
2013-11-29 19:32:00,30.0,-99.9,30.45,South,180,3.0,10.0,-999,-99.99,,,-99.99,,2013-11-30 01:32:00,
2013-11-29 19:40:00,31.0,-99.9,30.43,South,190,6.0,14.0,-999,-99.99,,,-99.99,,2013-11-30 01:40:00,
2013-11-29 20:11:00,31.0,-99.9,30.43,South,190,6.0,14.0,-999,-99.99,,,-99.99,,2013-11-30 02:11:00,
2013-11-29 20:22:00,31.0,-99.9,30.43,South,190,6.0,14.0,-999,-99.99,,,-99.99,,2013-11-30 02:22:00,
2013-11-29 20:32:00,31.0,-99.9,30.43,South,190,6.0,14.0,-999,-99.99,,,-99.99,,2013-11-30 02:32:00,
2013-11-29 20:40:00,32.0,-99.9,30.39,South,170,8.0,14.0,-999,-99.99,,,-99.99,,2013-11-30 02:40:00,
2013-11-29 21:12:00,32.0,-99.9,30.39,South,170,8.0,14.0,-999,-99.99,,,-99.99,,2013-11-30 03:12:00,
2013-11-29 21:22:00,32.0,-99.9,30.39,South,170,8.0,14.0,-999,-99.99,,,-99.99,,2013-11-30 03:22:00,
2013-11-29 21:33:00,32.0,-99.9,30.39,South,170,8.0,14.0,-999,-99.99,,,-99.99,,2013-11-30 03:33:00,
2013-11-29 21:40:00,33.0,-99.9,30.38,South,170,6.0,15.0,-999,-99.99,,,-99.99,,2013-11-30 03:40:00,
2013-11-29 22:13:00,33.0,-99.9,30.38,South,170,6.0,15.0,-999,-99.99,,,-99.99,,2013-11-30 04:13:00,
2013-11-29 22:23:00,33.0,-99.9,30.38,South,170,6.0,15.0,-999,-99.99,,,-99.99,,2013-11-30 04:23:00,
2013-11-29 22:33:00,33.0,-99.9,30.38,South,170,6.0,15.0,-999,-99.99,,,-99.99,,2013-11-30 04:33:00,
2013-11-29 22:40:00,34.0,-99.9,30.35,South,190,7.0,15.0,-999,-99.99,,,-99.99,,2013-11-30 04:40:00,
2013-11-29 23:12:00,34.0,-99.9,30.35,South,190,7.0,15.0,-999,-99.99,,,-99.99,,2013-11-30 05:12:00,
2013-11-29 23:22:00,34.0,-99.9,30.35,South,190,7.0,15.0,-999,-99.99,,,-99.99,,2013-11-30 05:22:00,
2013-11-29 23:33:00,34.0,-99.9,30.35,South,190,7.0,15.0,-999,-99.99,,,-99.99,,2013-11-30 05:33:00,
2013-11-29 23:40:00,35.0,-99.9,30.32,South,170,6.0,13.0,-999,-99.99,,,-99.99,,2013-11-30 05:40:00,